Preview of NWS' New Version of Forecast
This preview is not operational and should not be used for support decisions.

Regional Weather Roundup (RWR)

Issued by National Weather Service (NWS)

                            
000
ASUS43 KMKX 181320
RWRWI 

WISCONSIN REGIONAL WEATHER ROUNDUP
NATIONAL WEATHER SERVICE MILWAUKEE/SULLIVAN WI
700 AM CST MON FEB 18 2019

NOTE: "FAIR" INDICATES FEW OR NO CLOUDS BELOW 12,000 FEET WITH NO
SIGNIFICANT WEATHER AND/OR OBSTRUCTIONS TO VISIBILITY.

WIZ001-002-006>008-014>016-023>028-181400-
NORTHWEST WISCONSIN
  
CITY           SKY/WX    TMP DP  RH WIND       PRES   REMARKS
SUPERIOR ARPT  CLOUDY     3  -1  81 CALM      30.40R                  
ASHLAND        CLOUDY     6   1  80 N6        30.37R WCI  -4          
HAYWARD        FAIR     -10 -15  78 CALM      30.32R                  
SIREN          FAIR     -11 -16  79 CALM      30.36R                  
CUMBERLAND     FAIR       3   0  85 NE6       30.31R WCI  -8          
RICE LAKE      FAIR       1  -1  88 N5        30.33R WCI  -8          
CHETEK         FAIR      -3  -6  87 CALM      30.34R                  
LADYSMITH      FAIR      -2  -6  83 NW5       30.32R WCI -12          
EAU CLAIRE     FAIR       4   1  88 N5        30.31R WCI  -5          
MENOMONIE      FAIR       1  -3  85 CALM      30.34R FOG              
NEW RICHMOND   FAIR      -3  -8  81 CALM      30.35R                  
OSCEOLA        FAIR      -8 -11  84 CALM      30.40R                  
$$
 
WIZ003>005-009-010-017-018-181400-
NORTH CENTRAL WISCONSIN
  
CITY           SKY/WX    TMP DP  RH WIND       PRES   REMARKS
MANITOWISH WTR NOT AVBL                                               
ARBOR VITAE    CLOUDY     9   6  87 NE8       30.25R WCI  -3          
WOODRUFF       CLOUDY     9   6  87 NE8       30.25R WCI  -3          
RHINELANDER    FAIR       1  -4  79 N3        30.23R                  
EAGLE RIVER    FAIR       3  -1  81 N9        30.22R WCI -11          
LAND O LAKES   CLOUDY     5   1  85 N6        30.26R WCI  -6          
PHILLIPS       FLURRIES -12 -16  83 CALM      30.26R                  
TOMAHAWK       FAIR      -4  -6  89 CALM      30.25R                  
MEDFORD        FAIR       1  -2  87 N7        30.25R WCI -12          
MERRILL        FAIR       2   0  88 CALM      30.26R                  
$$
 
WIZ029-030-035-036-043>047-181400-
CENTRAL WISCONSIN
  
CITY           SKY/WX    TMP DP  RH WIND       PRES   REMARKS
WAUSAU         FAIR       5   0  79 N6        30.24R WCI  -6          
MOSINEE        PTCLDY     7   3  85 N14       30.24R WCI -10          
MARSHFIELD     FAIR       7   2  80 N8        30.23R WCI  -6          
STEVENS POINT  FAIR       7   3  84 N7        30.26R WCI  -5          
WAUPACA        FAIR      12   6  76 N8        30.26R WCI   1          
WAUTOMA        FAIR       8   5  87 NW6         N/A  WCI  -2          
WISC RAPIDS    FAIR       9   1  70 N10       30.26R WCI  -5          
CAMP DOUGLAS   CLOUDY     7   5  92 W7        30.25R WCI  -5          
$$
 
WIZ011>013-019>022-031-037>040-048>050-181400-
NORTHEAST WISCONSIN
  
CITY           SKY/WX    TMP DP  RH WIND       PRES   REMARKS
ANTIGO         FAIR      -2  -5  87 N7        30.24R WCI -16          
SHAWANO        FAIR      12   6  76 N3        30.26R                  
OCONTO         FAIR      12   7  79 N6        30.26R WCI   3          
STURGEON BAY   FAIR      11   8  88 N12       30.22R WCI  -3          
GREEN BAY      FAIR      14   6  70 N10       30.24R WCI   1          
MANITOWOC      CLOUDY    13   9  84 N14       30.22R WCI  -2          
APPLETON       PTCLDY    10   3  72 N9        30.20R WCI  -2          
CLINTONVILLE   FAIR      11   5  75 N6        30.26R WCI   2          
OSHKOSH        FAIR      11   7  84 N8        30.23R WCI  -1          
$$
 
WIZ032>034-041-042-053>061-181400-
SOUTHWEST WISCONSIN
  
CITY           SKY/WX    TMP DP  RH WIND       PRES   REMARKS
LA CROSSE      CLOUDY     9   4  80 NW9       30.31R WCI  -4          
SPARTA         LGT SNOW   5   3  92 CALM      30.29R                  
VIROQUA        FAIR       7   6  98 N5        30.25R WCI  -2          
BOSCOBEL       FAIR       9   6  88 CALM      30.28R                  
PRAIRIE DU CHI MOCLDY    13  11  89 NW3       30.30R                  
PLATTEVILLE    FAIR      16  15  95 N7        30.24R WCI   7          
$$

WIZ056-057-062-063-064-067-068-181400-
SOUTH CENTRAL WISCONSIN
  
CITY           SKY/WX    TMP DP  RH WIND       PRES   REMARKS
REEDSBURG      FAIR      10   8  88 NW3       30.26R                  
BARABOO/DELLS  FAIR      10   7  87 CALM      30.26R                  
LONE ROCK      FAIR      15  11  83 N5        30.27R WCI   8          
MINERAL POINT  FAIR      18  18 100 NW7       30.21R WCI   8          
MADISON        MOCLDY    15  11  83 N8        30.22R WCI   4          
MIDDLETON      CLOUDY    16  13  89 N5        30.23R WCI   9          
WATERTOWN      CLOUDY    15  12  90 N10       30.23R WCI   2          
MONROE         FAIR      15  12  86 MISG      30.22R                  
JANESVILLE     MOCLDY    18  14  86 N9        30.20R WCI   6          
$$
 
WIZ051-052-058>065-066-070>072-181400-
SOUTHEAST WISCONSIN
  
CITY           SKY/WX    TMP DP  RH WIND       PRES   REMARKS
MILWAUKEE      FAIR      19  14  81 NW10      30.18R WCI   7          
WAUKESHA       CLOUDY    16  10  79 NW8       30.19R WCI   5          
MILWAUKEE/TIMM MOCLDY    18  10  73 N9        30.22R WCI   6          
RACINE         LGT SNOW  21  17  84 N12       30.19R FOG     WCI   9  
KENOSHA        LGT SNOW  21  18  88 N9        30.17R FOG     WCI  11  
FOND DU LAC    FAIR      10   7  87 NW7       30.22R WCI  -1          
SHEBOYGAN      MIX PCPN  13   8  81 N10       30.20R WCI   0          
WEST BEND      FAIR      14  12  92 N6        30.20R FOG     WCI   5  
JUNEAU         FAIR      13   9  86 N10       30.22R WCI   0          
$$

LSZ147-162-181400-
LAKE SUPERIOR
  
STATION/POSITION TIME  TEMP    WIND        PRES    WAVE
                       AIR SEA DIR/SP/G            HT/PER
                 (UTC) (F)     (DEG/KT/KT) (MB)    (FT/S)
DEVILS ISLAND    1300    9      30/  8/  9 1030.6R
SAXON HARBOR     1230   11      40/  5/  9 1027.4S
$$
 
LMZ867-665-643>646-181400-
LAKE MICHIGAN
  
STATION/POSITION TIME  TEMP    WIND        PRES    WAVE
                       AIR SEA DIR/SP/G            HT/PER
                 (UTC) (F)     (DEG/KT/KT) (MB)    (FT/S)
CHAMBERS ISLAND  1240   10     310/  7/ 10 1023.0R
NORTHPORT PIER   1308   13     350/  6/  9 1024.4
KEWAUNEE LAKESHO 1254   13     330/  9/ 13 1022.3R
SHEBOYGAN LAKESH 1300   15     330/ 13/ 15 1024.0R
PORT WASHINGTON  1240   17     320/  7/ 12 1023.7R
KENOSHA   LAKESH 1300   21     330/ 12/ 15 1022.0
$$

TC  - TEMPERATURE IN CELSIUS
VSB - VISIBILITY IN STATUTE MILES
WCI - WIND CHILL INDEX
HX  - HEAT INDEX